TimeCST,TemperatureF,Dew PointF,Humidity,Sea Level PressureIn,VisibilityMPH,Wind Direction,Wind SpeedMPH,Gust SpeedMPH,PrecipitationIn,Events,Conditions,WindDirDegrees,DateUTC
12:15 AM,32.0,17.6,55,30.00,10.0,North,-9999.0,-,N/A,,Clear,0,2013-02-06 06:15:00
12:35 AM,30.2,15.8,55,30.00,10.0,North,-9999.0,-,N/A,,Clear,0,2013-02-06 06:35:00
12:55 AM,28.4,17.6,64,30.00,10.0,North,-9999.0,-,N/A,,Clear,0,2013-02-06 06:55:00
1:15 AM,26.6,17.6,69,30.00,10.0,North,-9999.0,-,N/A,,Clear,0,2013-02-06 07:15:00
1:35 AM,26.6,15.8,64,30.00,10.0,North,-9999.0,-,N/A,,Clear,0,2013-02-06 07:35:00
2:15 AM,30.2,19.4,64,29.98,10.0,North,-9999.0,-,N/A,,Clear,0,2013-02-06 08:15:00
2:35 AM,30.2,23.0,75,29.98,10.0,North,-9999.0,-,N/A,,Clear,0,2013-02-06 08:35:00
2:55 AM,32.0,23.0,69,29.97,10.0,North,-9999.0,-,N/A,,Clear,0,2013-02-06 08:55:00
3:15 AM,32.0,26.6,80,29.96,10.0,North,-9999.0,-,N/A,,Clear,0,2013-02-06 09:15:00
3:35 AM,32.0,28.4,87,29.96,10.0,North,-9999.0,-,N/A,,Clear,0,2013-02-06 09:35:00
3:55 AM,30.2,24.8,80,29.96,10.0,North,-9999.0,-,N/A,,Clear,0,2013-02-06 09:55:00
4:15 AM,26.6,21.2,80,29.96,10.0,North,-9999.0,-,N/A,,Clear,0,2013-02-06 10:15:00
4:35 AM,26.6,19.4,74,29.95,10.0,North,-9999.0,-,N/A,,Clear,0,2013-02-06 10:35:00
4:55 AM,24.8,19.4,80,29.95,10.0,North,-9999.0,-,N/A,,Mostly Cloudy,0,2013-02-06 10:55:00
5:15 AM,26.6,19.4,74,29.95,10.0,North,-9999.0,-,N/A,,Mostly Cloudy,0,2013-02-06 11:15:00
5:35 AM,26.6,19.4,74,29.94,10.0,North,-9999.0,-,N/A,,Scattered Clouds,0,2013-02-06 11:35:00
5:55 AM,23.0,17.6,80,29.94,10.0,North,-9999.0,-,N/A,,Scattered Clouds,0,2013-02-06 11:55:00
6:15 AM,26.6,21.2,80,29.94,0.5,North,-9999.0,-,N/A,Fog,Light Freezing Fog,0,2013-02-06 12:15:00
6:35 AM,26.6,24.8,93,29.93,0.2,North,-9999.0,-,N/A,Fog,Light Freezing Fog,0,2013-02-06 12:35:00
6:55 AM,28.4,26.6,93,29.94,0.2,North,-9999.0,-,N/A,Fog,Light Freezing Fog,0,2013-02-06 12:55:00
7:35 AM,26.6,24.8,93,29.94,0.2,North,-9999.0,-,N/A,Fog,Light Freezing Fog,0,2013-02-06 13:35:00
7:55 AM,21.2,19.4,93,29.94,0.2,North,-9999.0,-,N/A,Fog,Light Freezing Fog,0,2013-02-06 13:55:00
8:15 AM,24.8,23.0,93,29.94,1.8,North,-9999.0,-,N/A,,Mist,0,2013-02-06 14:15:00
8:35 AM,26.6,23.0,86,29.93,10.0,North,-9999.0,-,N/A,,Clear,0,2013-02-06 14:35:00
8:55 AM,30.2,26.6,86,29.93,10.0,North,-9999.0,-,N/A,,Clear,0,2013-02-06 14:55:00
9:35 AM,35.6,26.6,70,29.93,10.0,North,-9999.0,-,N/A,,Clear,0,2013-02-06 15:35:00
9:55 AM,41.0,26.6,57,29.93,10.0,North,-9999.0,-,N/A,,Clear,0,2013-02-06 15:55:00
10:15 AM,46.4,26.6,46,29.92,10.0,North,-9999.0,-,N/A,,Clear,0,2013-02-06 16:15:00
10:35 AM,53.6,23.0,30,29.91,10.0,North,-9999.0,-,N/A,,Clear,0,2013-02-06 16:35:00
10:55 AM,57.2,23.0,27,29.91,10.0,North,-9999.0,-,N/A,,Clear,0,2013-02-06 16:55:00
11:15 AM,59.0,21.2,23,29.91,10.0,North,-9999.0,-,N/A,,Clear,0,2013-02-06 17:15:00
11:35 AM,60.8,21.2,22,29.91,10.0,North,-9999.0,-,N/A,,Clear,0,2013-02-06 17:35:00
11:55 AM,62.6,21.2,20,29.90,10.0,North,-9999.0,-,N/A,,Clear,0,2013-02-06 17:55:00
12:15 PM,64.4,19.4,18,29.89,10.0,North,-9999.0,-,N/A,,Clear,0,2013-02-06 18:15:00
12:35 PM,64.4,17.6,16,29.88,10.0,North,-9999.0,-,N/A,,Clear,0,2013-02-06 18:35:00
12:55 PM,66.2,17.6,15,29.86,10.0,North,-9999.0,-,N/A,,Clear,0,2013-02-06 18:55:00
1:15 PM,66.2,17.6,15,29.85,10.0,North,-9999.0,-,N/A,,Clear,0,2013-02-06 19:15:00
1:35 PM,68.0,19.4,16,29.84,10.0,North,-9999.0,-,N/A,,Clear,0,2013-02-06 19:35:00
1:55 PM,68.0,21.2,17,29.83,10.0,North,-9999.0,-,N/A,,Clear,0,2013-02-06 19:55:00
2:15 PM,68.0,21.2,17,29.81,10.0,North,-9999.0,-,N/A,,Clear,0,2013-02-06 20:15:00
2:35 PM,68.0,21.2,17,29.80,10.0,North,-9999.0,-,N/A,,Clear,0,2013-02-06 20:35:00
2:55 PM,69.8,21.2,16,29.80,10.0,North,-9999.0,-,N/A,,Clear,0,2013-02-06 20:55:00
3:15 PM,69.8,19.4,15,29.79,10.0,North,-9999.0,-,N/A,,Clear,0,2013-02-06 21:15:00
3:35 PM,69.8,19.4,15,29.79,10.0,North,-9999.0,-,N/A,,Clear,0,2013-02-06 21:35:00
3:55 PM,69.8,19.4,15,29.79,10.0,North,-9999.0,-,N/A,,Clear,0,2013-02-06 21:55:00
4:15 PM,69.8,19.4,15,29.78,10.0,North,-9999.0,-,N/A,,Clear,0,2013-02-06 22:15:00
4:35 PM,69.8,19.4,15,29.78,10.0,North,-9999.0,-,N/A,,Clear,0,2013-02-06 22:35:00
4:55 PM,68.0,19.4,16,29.77,10.0,North,-9999.0,-,N/A,,Clear,0,2013-02-06 22:55:00
5:15 PM,68.0,19.4,16,29.77,10.0,North,-9999.0,-,N/A,,Clear,0,2013-02-06 23:15:00
5:35 PM,66.2,19.4,17,29.77,10.0,North,-9999.0,-,N/A,,Clear,0,2013-02-06 23:35:00
5:55 PM,64.4,21.2,19,29.77,10.0,North,-9999.0,-,N/A,,Clear,0,2013-02-06 23:55:00
6:15 PM,60.8,23.0,23,29.77,10.0,North,-9999.0,-,N/A,,Clear,0,2013-02-07 00:15:00
6:35 PM,59.0,23.0,25,29.78,10.0,North,-9999.0,-,N/A,,Clear,0,2013-02-07 00:35:00
6:55 PM,55.4,21.2,26,29.78,10.0,North,-9999.0,-,N/A,,Clear,0,2013-02-07 00:55:00
7:15 PM,51.8,21.2,30,29.79,10.0,North,-9999.0,-,N/A,,Clear,0,2013-02-07 01:15:00
7:35 PM,51.8,21.2,30,29.80,7.0,North,-9999.0,-,N/A,,Clear,0,2013-02-07 01:35:00
7:55 PM,51.8,23.0,33,29.80,7.0,North,-9999.0,-,N/A,,Clear,0,2013-02-07 01:55:00
8:15 PM,51.8,23.0,33,29.80,10.0,North,-9999.0,-,N/A,,Clear,0,2013-02-07 02:15:00
8:35 PM,50.0,23.0,35,29.80,10.0,North,-9999.0,-,N/A,,Clear,0,2013-02-07 02:35:00
8:55 PM,50.0,23.0,35,29.81,10.0,North,-9999.0,-,N/A,,Clear,0,2013-02-07 02:55:00
9:15 PM,46.4,23.0,40,29.81,10.0,North,-9999.0,-,N/A,,Clear,0,2013-02-07 03:15:00
9:35 PM,50.0,23.0,35,29.80,10.0,North,-9999.0,-,N/A,,Clear,0,2013-02-07 03:35:00
9:55 PM,50.0,24.8,37,29.80,10.0,North,-9999.0,-,N/A,,Clear,0,2013-02-07 03:55:00
10:15 PM,51.8,24.8,35,29.80,10.0,North,-9999.0,-,N/A,,Clear,0,2013-02-07 04:15:00
10:35 PM,53.6,24.8,33,29.80,10.0,North,-9999.0,-,N/A,,Clear,0,2013-02-07 04:35:00
10:55 PM,55.4,24.8,31,29.80,10.0,North,-9999.0,-,N/A,,Clear,0,2013-02-07 04:55:00
11:15 PM,55.4,24.8,31,29.79,10.0,North,-9999.0,-,N/A,,Clear,0,2013-02-07 05:15:00
11:35 PM,53.6,26.6,35,29.79,10.0,North,-9999.0,-,N/A,,Clear,0,2013-02-07 05:35:00
11:55 PM,53.6,24.8,33,29.79,10.0,North,-9999.0,-,N/A,,Clear,0,2013-02-07 05:55:00